フルス彗星

P/2019 Y2 ( Fuls )

English version
Home page
Updated on February 8, 2020

---------------------------------------------------------------------

・ プロフィール

発見日 2019年12月21日
発見光度 18.8等
発見者 D. Carson Fuls (Mount Lemmon Survey)

・ 軌道要素

Epoch 2020 Feb. 1.0 TT = JDT 2458880.5                                          
T 2020 Jan. 31.67584 TT                                 Williams                
q   2.1253846            (2000.0)            P               Q                  
n   0.15308883     Peri.   92.26330     -0.98921144     -0.11982439             
a   3.4607778      Node    80.86294     +0.07534644     -0.90952551             
e   0.3858651      Incl.    4.89681     +0.12563294     -0.39800184             
P   6.44                                                                        
From 145 observations 2019 Dec. 21-2020 Feb. 3, mean residual 0".6.             

・ 星図

・ 光度変化

        m1 = 13.0 + 5 logΔ + 10.0 log r

---------------------------------------------------------------------

軌道要素はM.P.E.C. 2020-C75に掲載されたものです。
星図はステラナビゲータ Ver.10 (アストロアーツ) で作成したものです。
光度グラフはComet for Windowsで作成したものです。

---------------------------------------------------------------------

Copyright(C) Seiichi Yoshida (comet@aerith.net). All rights reserved.